Location: Newark
(23.3970°S, 47.6010°W)
Time: 13:38:34
(UTC+00:00)

Vanguard 3 - Visible Passes

Search period start: 28 February 2020 00:00
Search period end: 09 March 2020 00:00
Orbit: 508 x 3263 km, 33.3° (Epoch: 27 February)

Date Brightness Start Highest point End Pass type
(mag) Time Alt. Az. Time Alt. Az. Time Alt. Az.
28 Feb 9.7 01:53:11 10° WSW 02:08:44 55° SSW 02:08:44 55° SSW visible
28 Feb 11.0 04:12:21 10° WSW 04:13:16 12° WSW 04:13:16 12° WSW visible
28 Feb 10.2 22:15:03 10° WNW 22:34:56 74° SSW 22:52:18 10° ESE visible
29 Feb 9.8 00:34:21 10° W 00:53:43 59° S 00:58:33 46° SE visible
29 Feb 10.3 02:54:20 10° WSW 03:03:05 35° WSW 03:03:05 35° WSW visible
29 Feb 10.2 23:15:53 10° W 23:35:56 63° S 23:48:20 21° ESE visible
01 Mar 9.6 01:35:52 10° WSW 01:52:52 61° SSW 01:52:52 61° SSW visible
01 Mar 11.0 03:55:01 10° WSW 03:57:23 16° WSW 03:57:23 16° WSW visible
01 Mar 10.3 21:58:21 10° W 22:17:46 71° SSW 22:35:51 10° ESE visible
02 Mar 9.8 00:17:17 10° WSW 00:37:02 60° S 00:42:37 45° SE visible
02 Mar 10.2 02:36:54 10° WSW 02:47:08 40° WSW 02:47:08 40° WSW visible
02 Mar 10.3 22:59:06 10° W 23:19:00 62° S 23:32:21 20° ESE visible
03 Mar 9.6 01:18:33 10° WSW 01:36:52 66° S 01:36:52 66° S visible
03 Mar 10.9 03:37:39 10° WSW 03:41:24 19° WSW 03:41:24 19° WSW visible
03 Mar 10.4 21:41:46 10° W 22:00:39 68° SSW 22:19:20 10° ESE visible
04 Mar 9.9 00:00:15 10° WSW 00:20:16 62° S 00:26:36 44° ESE visible
04 Mar 10.1 02:19:27 10° WSW 02:31:07 45° WSW 02:31:07 45° WSW visible
04 Mar 10.3 22:42:23 10° W 23:02:02 62° S 23:16:19 19° ESE visible
05 Mar 9.6 01:01:16 10° WSW 01:20:50 72° SSE 01:20:50 72° SSE visible
05 Mar 10.8 03:20:16 10° WSW 03:25:22 22° WSW 03:25:22 22° WSW visible
05 Mar 10.5 21:25:20 10° W 21:43:33 66° S 22:02:44 10° ESE visible
05 Mar 9.9 23:43:16 10° WSW 00:03:25 64° S 00:10:34 42° ESE visible
06 Mar 10.0 02:02:00 10° WSW 02:15:05 51° WSW 02:15:05 51° WSW visible
06 Mar 10.3 22:25:45 10° WSW 22:45:04 62° S 23:00:17 18° ESE visible
07 Mar 9.6 00:44:00 10° WSW 01:04:14 76° SSE 01:04:48 76° SE visible
07 Mar 10.8 03:02:54 10° WSW 03:09:20 25° WSW 03:09:20 25° WSW visible
07 Mar 10.0 23:26:21 10° WSW 23:46:29 67° SSE 23:54:34 41° ESE visible
08 Mar 10.0 01:44:36 10° WSW 01:59:05 56° WSW 01:59:05 56° WSW visible
08 Mar 10.3 22:09:12 10° WSW 22:28:05 62° S 22:44:20 16° E visible
